sat.trackr.live / text

‹ back to catalog

STARLINK-34231

NORAD 64175 · 2025-113F

PAYLOAD ACTIVE UNKNOWN

§ Identity

Operator
Country
US
Launch date
2025-05-28
Launch site
AFETR
Launch vehicle
Mass (kg)
RCS (m²)

Purposes: comms

External: N2YO · Heavens-Above · Gunter

§ Orbital elements

Epoch: 2026-05-25T03:39:09.628992Z

Period
94.01 min
Inclination
53.1576°
Eccentricity
0.0001139
Mean motion
15.31711985 rev/d
Perigee alt
469.9 km
Apogee alt
471.5 km
Semi-major
6,848.8 km
B*
6.1803e-4
RAAN
95.8442°
Arg perigee
83.7212°
Mean anomaly
276.3919°
Rev number
5,677

§ Raw data

STARLINK-342311 64175U 25113F   26145.15219478  .00018869  00000+0  61803-3 0  99922 64175  53.1576  95.8442 0001139  83.7212 276.3919 15.31711985 56774

JSON: /api/v1/satellites/64175 · /tle

For live sub-satellite position, see the globe view (requires WebGL).

§ Visibility from observer

Set your observer location to see the next 7 days of passes ≥ 10°. The values pass through the URL so the page stays shareable.

No JS? Fill the form by hand. The geolocation button needs JavaScript.